TimePST,TemperatureF,Dew PointF,Humidity,Sea Level PressureIn,VisibilityMPH,Wind Direction,Wind SpeedMPH,Gust SpeedMPH,PrecipitationIn,Events,Conditions,WindDirDegrees,DateUTC
12:03 AM,15.8,15.8,100,30.38,0.8,Calm,Calm,-,N/A,,Mist,0,2013-01-15 08:03:00
12:08 AM,15.8,15.8,100,30.38,0.5,SSE,1.2,-,N/A,Fog,Light Freezing Fog,160,2013-01-15 08:08:00
12:13 AM,15.8,15.8,100,30.38,0.2,SE,1.2,-,N/A,Fog,Light Freezing Fog,140,2013-01-15 08:13:00
12:17 AM,15.8,15.8,100,30.38,0.2,SE,1.2,-,N/A,Fog-Snow,Light Freezing Fog,140,2013-01-15 08:17:00
12:31 AM,17.6,17.6,100,30.37,0.2,SSW,2.3,-,N/A,Fog,Light Freezing Fog,200,2013-01-15 08:31:00
12:32 AM,17.6,17.6,100,30.38,0.2,SSW,2.3,-,N/A,Fog,Light Freezing Drizzle,210,2013-01-15 08:32:00
12:58 AM,16.5,16.5,100,30.52,0.2,Calm,Calm,-,0.00,Fog,Light Freezing Drizzle,0,2013-01-15 08:58:00
1:01 AM,15.8,15.8,100,30.40,0.2,NNE,3.5,-,N/A,Fog,Light Freezing Fog,30,2013-01-15 09:01:00
1:06 AM,15.8,15.8,100,30.41,0.5,Calm,Calm,-,N/A,Fog,Light Freezing Fog,0,2013-01-15 09:06:00
1:11 AM,15.8,15.8,100,30.40,0.5,South,1.2,-,N/A,Fog,Light Freezing Fog,190,2013-01-15 09:11:00
1:16 AM,15.8,15.8,100,30.40,0.8,SSW,1.2,-,N/A,,Mist,200,2013-01-15 09:16:00
1:17 AM,15.8,15.8,100,30.40,0.8,South,1.2,-,N/A,,Mist,190,2013-01-15 09:17:00
1:22 AM,15.8,15.8,100,30.39,0.5,SSW,2.3,-,N/A,Fog,Light Freezing Fog,200,2013-01-15 09:22:00
1:27 AM,15.8,15.8,100,30.40,0.5,South,2.3,-,N/A,Fog,Light Freezing Fog,190,2013-01-15 09:27:00
1:37 AM,17.6,17.6,100,30.40,0.5,SW,2.3,-,N/A,Fog,Light Freezing Fog,230,2013-01-15 09:37:00
1:42 AM,17.6,17.6,100,30.40,2.5,SW,2.3,-,N/A,,Overcast,220,2013-01-15 09:42:00
1:47 AM,17.6,17.6,100,30.40,7.0,SW,2.3,-,N/A,,Overcast,220,2013-01-15 09:47:00
1:58 AM,17.6,17.6,100,30.53,8.0,SW,1.2,-,0.00,,Overcast,220,2013-01-15 09:58:00
2:43 AM,19.4,19.4,100,30.41,9.0,Variable,1.2,-,N/A,,Mostly Cloudy,0,2013-01-15 10:43:00
2:58 AM,18.5,18.5,100,30.53,8.0,Variable,1.2,-,N/A,,Mostly Cloudy,0,2013-01-15 10:58:00
3:08 AM,17.6,17.6,100,30.41,8.0,NE,2.3,-,N/A,Snow,Light Snow,50,2013-01-15 11:08:00
3:18 AM,17.6,17.6,100,30.41,10.0,Calm,Calm,-,N/A,,Overcast,0,2013-01-15 11:18:00
3:19 AM,17.6,17.6,100,30.41,10.0,ENE,1.2,-,N/A,,Light Freezing Drizzle,70,2013-01-15 11:19:00
3:44 AM,17.6,17.6,100,30.42,10.0,Calm,Calm,-,N/A,,Light Freezing Drizzle,0,2013-01-15 11:44:00
3:48 AM,17.6,17.6,100,30.41,10.0,Calm,Calm,-,N/A,,Scattered Clouds,0,2013-01-15 11:48:00
3:58 AM,17.2,17.2,100,30.54,10.0,Calm,Calm,-,0.00,,Partly Cloudy,0,2013-01-15 11:58:00
4:03 AM,17.6,17.6,100,30.42,8.0,Calm,Calm,-,N/A,,Partly Cloudy,0,2013-01-15 12:03:00
4:18 AM,17.6,17.6,100,30.41,5.0,WSW,2.3,-,N/A,,Mostly Cloudy,240,2013-01-15 12:18:00
4:23 AM,17.6,17.6,100,30.41,4.0,Calm,Calm,-,N/A,,Mostly Cloudy,0,2013-01-15 12:23:00
4:28 AM,17.6,17.6,100,30.42,5.0,Calm,Calm,-,N/A,,Mostly Cloudy,0,2013-01-15 12:28:00
4:33 AM,17.6,17.6,100,30.42,8.0,Calm,Calm,-,N/A,,Overcast,0,2013-01-15 12:33:00
4:38 AM,17.6,17.6,100,30.42,10.0,Calm,Calm,-,N/A,,Overcast,0,2013-01-15 12:38:00
4:43 AM,17.6,17.6,100,30.41,10.0,SSW,1.2,-,N/A,,Overcast,210,2013-01-15 12:43:00
4:58 AM,17.1,17.1,100,30.54,10.0,Calm,Calm,-,N/A,,Overcast,0,2013-01-15 12:58:00
5:23 AM,19.4,19.4,100,30.42,10.0,South,3.5,-,N/A,Snow,Light Snow,190,2013-01-15 13:23:00
5:28 AM,19.4,19.4,100,30.42,10.0,SSW,3.5,-,N/A,Snow,Light Snow,200,2013-01-15 13:28:00
5:38 AM,19.4,19.4,100,30.43,1.2,SSW,2.3,-,N/A,Snow,Light Snow,200,2013-01-15 13:38:00
5:39 AM,19.4,19.4,100,30.43,1.0,SSW,2.3,-,N/A,,Overcast,200,2013-01-15 13:39:00
5:40 AM,19.4,19.4,100,30.43,1.0,SSW,2.3,-,N/A,,Light Freezing Drizzle,200,2013-01-15 13:40:00
5:45 AM,19.4,19.4,100,30.43,1.2,South,2.3,-,N/A,,Light Freezing Drizzle,190,2013-01-15 13:45:00
5:50 AM,19.4,19.4,100,30.43,5.0,South,2.3,-,N/A,,Light Freezing Drizzle,170,2013-01-15 13:50:00
5:58 AM,19.0,19.0,100,30.56,10.0,Calm,Calm,-,0.00,,Light Freezing Drizzle,0,2013-01-15 13:58:00
6:09 AM,19.4,19.4,100,30.44,10.0,ESE,2.3,-,N/A,,Overcast,120,2013-01-15 14:09:00
6:58 AM,19.2,19.2,100,30.58,10.0,Calm,Calm,-,0.00,,Overcast,0,2013-01-15 14:58:00
7:03 AM,19.4,19.4,100,30.45,10.0,ENE,1.2,-,N/A,,Overcast,60,2013-01-15 15:03:00
7:13 AM,19.4,19.4,100,30.46,10.0,Calm,Calm,-,N/A,,Overcast,0,2013-01-15 15:13:00
7:42 AM,17.6,17.6,100,30.47,10.0,SSE,1.2,-,N/A,Snow,Light Snow,150,2013-01-15 15:42:00
7:48 AM,19.4,19.4,100,30.47,10.0,South,2.3,-,N/A,,Overcast,180,2013-01-15 15:48:00
7:49 AM,19.4,19.4,100,30.47,10.0,South,2.3,-,N/A,,Light Freezing Drizzle,180,2013-01-15 15:49:00
7:55 AM,19.6,19.6,100,30.59,10.0,Calm,Calm,-,N/A,,Overcast,0,2013-01-15 15:55:00
8:20 AM,19.4,19.4,100,30.49,10.0,Calm,Calm,-,N/A,,Overcast,0,2013-01-15 16:20:00
8:27 AM,19.4,19.4,100,30.49,10.0,SSE,2.3,-,N/A,Snow,Light Snow,150,2013-01-15 16:27:00
8:55 AM,18.7,18.7,100,30.61,10.0,Calm,Calm,-,N/A,,Overcast,0,2013-01-15 16:55:00
9:34 AM,19.4,19.4,100,30.50,9.0,East,3.5,-,N/A,,Overcast,100,2013-01-15 17:34:00
9:55 AM,20.7,20.7,100,30.64,10.0,Calm,Calm,-,N/A,,Overcast,0,2013-01-15 17:55:00
10:04 AM,21.2,21.2,100,30.52,10.0,West,1.2,-,N/A,,Scattered Clouds,270,2013-01-15 18:04:00
10:20 AM,21.2,21.2,100,30.52,10.0,SSW,2.3,-,N/A,,Clear,210,2013-01-15 18:20:00
10:31 AM,21.2,21.2,100,30.52,10.0,Calm,Calm,-,N/A,,Clear,0,2013-01-15 18:31:00
10:42 AM,21.2,21.2,100,30.52,10.0,Calm,Calm,-,N/A,,Clear,0,2013-01-15 18:42:00
10:52 AM,21.2,21.2,100,30.52,10.0,Calm,Calm,-,N/A,,Clear,0,2013-01-15 18:52:00
10:58 AM,20.8,20.8,100,30.64,10.0,East,1.2,-,0.00,,Clear,90,2013-01-15 18:58:00
11:41 AM,21.2,21.2,100,30.51,10.0,East,1.2,-,N/A,,Mostly Cloudy,80,2013-01-15 19:41:00
11:58 AM,22.1,22.1,100,30.65,10.0,Variable,1.2,-,N/A,,Overcast,0,2013-01-15 19:58:00
12:09 PM,23.0,23.0,100,30.51,10.0,South,3.5,-,N/A,,Overcast,190,2013-01-15 20:09:00
12:21 PM,23.0,23.0,100,30.51,10.0,South,5.8,-,N/A,,Overcast,180,2013-01-15 20:21:00
12:32 PM,24.8,24.8,100,30.50,10.0,South,5.8,-,N/A,,Overcast,180,2013-01-15 20:32:00
12:39 PM,24.8,24.8,100,30.51,10.0,South,4.6,-,N/A,,Overcast,190,2013-01-15 20:39:00
12:58 PM,25.0,25.0,100,30.63,10.0,South,6.9,-,0.00,,Overcast,190,2013-01-15 20:58:00
1:05 PM,24.8,24.8,100,30.51,10.0,South,4.6,-,N/A,,Overcast,190,2013-01-15 21:05:00
1:22 PM,24.8,24.8,100,30.51,10.0,South,4.6,-,N/A,,Overcast,180,2013-01-15 21:22:00
1:27 PM,26.6,26.6,100,30.50,10.0,South,4.6,-,N/A,,Overcast,190,2013-01-15 21:27:00
1:28 PM,26.6,26.6,100,30.51,10.0,South,4.6,-,N/A,,Overcast,190,2013-01-15 21:28:00
1:34 PM,26.6,26.6,100,30.50,10.0,South,4.6,-,N/A,,Overcast,190,2013-01-15 21:34:00
1:51 PM,26.6,26.6,100,30.51,10.0,SSE,5.8,-,N/A,,Overcast,150,2013-01-15 21:51:00
1:55 PM,26.6,26.6,100,30.51,10.0,SSE,6.9,-,N/A,,Overcast,160,2013-01-15 21:55:00
1:59 PM,26.6,26.6,100,30.63,10.0,SSE,6.9,-,0.00,,Overcast,160,2013-01-15 21:59:00
2:09 PM,26.6,26.6,100,30.51,10.0,SSE,8.1,-,N/A,,Overcast,150,2013-01-15 22:09:00
2:36 PM,26.6,26.6,100,30.52,10.0,SSE,6.9,-,N/A,,Overcast,160,2013-01-15 22:36:00
2:58 PM,27.3,27.3,100,30.63,10.0,SSE,6.9,-,0.00,,Overcast,160,2013-01-15 22:58:00
3:27 PM,26.6,26.6,100,30.52,10.0,South,5.8,-,N/A,,Overcast,170,2013-01-15 23:27:00
3:38 PM,26.6,26.6,100,30.52,10.0,SSE,6.9,-,N/A,,Overcast,160,2013-01-15 23:38:00
3:58 PM,27.1,27.1,100,30.63,10.0,South,3.5,-,0.00,,Overcast,170,2013-01-15 23:58:00
4:20 PM,26.6,26.6,100,30.52,10.0,SE,5.8,-,N/A,,Overcast,140,2013-01-16 00:20:00
4:35 PM,26.6,26.6,100,30.52,10.0,South,4.6,-,N/A,,Overcast,170,2013-01-16 00:35:00
4:39 PM,26.6,26.6,100,30.52,10.0,South,4.6,-,N/A,,Overcast,170,2013-01-16 00:39:00
4:44 PM,26.6,26.6,100,30.52,10.0,South,4.6,-,N/A,,Overcast,190,2013-01-16 00:44:00
4:51 PM,26.6,26.6,100,30.52,9.0,South,3.5,-,N/A,,Overcast,190,2013-01-16 00:51:00
4:58 PM,27.3,27.3,100,30.63,8.0,South,2.3,-,0.00,,Overcast,190,2013-01-16 00:58:00
4:59 PM,26.6,26.6,100,30.52,9.0,South,2.3,-,N/A,,Overcast,180,2013-01-16 00:59:00
5:44 PM,26.6,26.6,100,30.52,9.0,East,2.3,-,N/A,,Overcast,90,2013-01-16 01:44:00
5:54 PM,28.4,28.4,100,30.52,9.0,East,3.5,-,N/A,,Overcast,100,2013-01-16 01:54:00
5:58 PM,27.7,27.5,99,30.63,9.0,East,2.3,-,0.00,,Overcast,100,2013-01-16 01:58:00
6:08 PM,28.4,28.4,100,30.52,10.0,ENE,3.5,-,N/A,,Overcast,60,2013-01-16 02:08:00
6:10 PM,28.4,28.4,100,30.52,10.0,ENE,3.5,-,N/A,,Overcast,60,2013-01-16 02:10:00
6:25 PM,28.4,28.4,100,30.52,10.0,ENE,3.5,-,N/A,,Overcast,70,2013-01-16 02:25:00
6:51 PM,28.4,28.4,100,30.52,10.0,East,1.2,-,N/A,,Overcast,90,2013-01-16 02:51:00
6:58 PM,28.4,28.4,100,30.63,10.0,NNE,3.5,-,N/A,,Overcast,30,2013-01-16 02:58:00
7:30 PM,28.4,28.4,100,30.51,8.0,NNE,3.5,-,N/A,,Overcast,30,2013-01-16 03:30:00
7:58 PM,26.8,26.8,100,30.62,8.0,NNE,4.6,-,N/A,,Overcast,30,2013-01-16 03:58:00
8:58 PM,24.6,24.6,100,30.62,6.0,NE,3.5,-,N/A,,Mostly Cloudy,40,2013-01-16 04:58:00
9:55 PM,23.0,23.0,100,30.50,2.5,NE,4.6,-,N/A,,Overcast,40,2013-01-16 05:55:00
9:59 PM,23.4,23.4,100,30.62,2.0,NE,4.6,-,N/A,,Overcast,40,2013-01-16 05:59:00
10:04 PM,23.0,23.0,100,30.50,0.8,NE,4.6,-,N/A,,Mostly Cloudy,40,2013-01-16 06:04:00
10:06 PM,23.0,23.0,100,30.50,0.5,NE,4.6,-,N/A,Fog,Light Freezing Fog,50,2013-01-16 06:06:00
10:19 PM,21.2,21.2,100,30.50,0.5,NE,5.8,-,N/A,Fog,Light Freezing Fog,50,2013-01-16 06:19:00
10:24 PM,21.2,21.2,100,30.50,0.8,NE,4.6,-,N/A,,Overcast,50,2013-01-16 06:24:00
10:31 PM,21.2,21.2,100,30.49,0.5,NE,4.6,-,N/A,Fog,Light Freezing Fog,40,2013-01-16 06:31:00
10:36 PM,21.2,21.2,100,30.49,0.8,NE,4.6,-,N/A,,Mist,50,2013-01-16 06:36:00
10:41 PM,21.2,21.2,100,30.49,0.5,NE,5.8,-,N/A,Fog,Light Freezing Fog,40,2013-01-16 06:41:00
10:49 PM,21.2,21.2,100,30.49,0.5,NE,4.6,-,N/A,Fog,Light Freezing Fog,50,2013-01-16 06:49:00
10:54 PM,23.0,23.0,100,30.49,0.5,ENE,3.5,-,N/A,Fog,Light Freezing Fog,60,2013-01-16 06:54:00
10:55 PM,23.0,23.0,100,30.49,0.5,NE,3.5,-,N/A,Fog-Snow,Light Freezing Fog,50,2013-01-16 06:55:00
10:59 PM,21.2,21.2,100,30.61,0.5,ENE,2.3,-,0.00,Fog-Snow,Light Freezing Fog,60,2013-01-16 06:59:00
11:10 PM,23.0,23.0,100,30.49,0.2,ENE,2.3,-,N/A,Fog-Snow,Light Freezing Fog,70,2013-01-16 07:10:00
11:15 PM,23.0,23.0,100,30.48,0.2,ENE,1.2,-,N/A,Fog-Snow,Light Freezing Fog,70,2013-01-16 07:15:00
11:49 PM,23.0,23.0,100,30.48,0.2,Calm,Calm,-,N/A,Fog,Light Freezing Fog,0,2013-01-16 07:49:00
11:50 PM,23.0,23.0,100,30.48,0.2,Calm,Calm,-,N/A,Fog,Light Freezing Drizzle,0,2013-01-16 07:50:00
11:58 PM,22.5,22.3,99,30.60,0.2,North,-9999.0,-,0.00,Fog,Light Freezing Drizzle,0,2013-01-16 07:58:00